Weather History for KHIE - October, 2012

Change the Weather History Date:

Tuesday, October 23, 2012

  Actual Average Record
Temperature  
Mean Temperature 42 °F -  
Max Temperature 55 °F 49 °F 73 °F (2007)
Min Temperature 30 °F 26 °F 18 °F (2000)
Degree Days  
Heating Degree Days 22    
Moisture  
Dew Point 34 °F    
Average Humidity 68    
Maximum Humidity 88    
Minimum Humidity 35    
Precipitation  
Precipitation 0.00 in - - ()
Sea Level Pressure  
Sea Level Pressure 30.10 in    
Wind  
Wind Speed 3 mph (WNW)    
Max Wind Speed 10 mph    
Max Gust Speed -    
Visibility 10 miles    
Events      
Averages and records for this station are not official NWS values.
T = Trace of Precipitation, MM = Missing Value Source: NWS Daily Summary

Daily Weather History Graph

Daily Weather History Graph

Search for Another Location

Airport or City:

Trip Planner

Search our weather history database for the weather conditions in past years. The results will help you decide how hot, cold, wet, or windy it might be!

Date:

Astronomy

Oct. 23, 2012 Rise Set
Actual Time 7:12 AM EDT 5:48 PM EDT
Civil Twilight 6:42 AM EDT 6:17 PM EDT
Nautical Twilight 6:08 AM EDT 6:51 PM EDT
Astronomical Twilight 5:34 AM EDT 7:25 PM EDT
Moon 2:42 PM EDT (10/23) 12:47 AM EDT (10/23)
Length of Visible Light 11h 35m
Length of Day
10h 36m
Waxing Gibbous, 66% of the Moon is Illuminated
Oct 23
Waxing Gibbous
Oct 29
Full
Nov 6
Last Quarter
Nov 13
New
Nov 20
First Quarter

Hourly Weather History & Observations

Time (EDT) Temp. Windchill Dew Point Humidity Pressure Visibility Wind Dir Wind Speed Gust Speed Precip Events Conditions
12:52 AM 50.0 °F - 39.9 °F 68% 30.03 in 10.0 mi West 4.6 mph - N/A   Overcast
1:25 AM 48.2 °F - 39.2 °F 71% 30.00 in 10.0 mi West 4.6 mph - N/A   Overcast
2:10 AM 48.2 °F - 37.4 °F 66% 30.01 in 10.0 mi WNW 6.9 mph - N/A   Overcast
2:52 AM 46.9 °F - 37.9 °F 71% 30.03 in 10.0 mi NW 4.6 mph - N/A   Mostly Cloudy
3:52 AM 46.0 °F - 37.0 °F 71% 30.04 in 10.0 mi Calm Calm - N/A   Overcast
4:52 AM 46.0 °F 43.9 °F 37.0 °F 71% 30.06 in 10.0 mi WNW 4.6 mph - N/A   Overcast
5:15 AM 46.4 °F - 37.4 °F 71% 30.05 in 10.0 mi Calm Calm - N/A   Overcast
6:52 AM 43.0 °F - 37.9 °F 82% 30.11 in 10.0 mi Calm Calm - N/A   Overcast
7:52 AM 42.1 °F - 37.0 °F 82% 30.12 in 10.0 mi Calm Calm - N/A   Mostly Cloudy
8:52 AM 44.1 °F - 37.9 °F 79% 30.14 in 10.0 mi Calm Calm - N/A   Scattered Clouds
9:03 AM 46.4 °F - 35.6 °F 66% 30.11 in 10.0 mi Calm Calm - N/A   Mostly Cloudy
9:52 AM 46.0 °F - 35.1 °F 66% 30.13 in 10.0 mi Calm Calm - N/A   Scattered Clouds
10:11 AM 48.2 °F - 35.6 °F 62% 30.12 in 10.0 mi WNW 3.5 mph - N/A   Mostly Cloudy
10:43 AM 48.2 °F - 33.8 °F 58% 30.12 in 10.0 mi Calm Calm - N/A   Scattered Clouds
11:52 AM 51.1 °F - 34.0 °F 52% 30.12 in 10.0 mi West 6.9 mph - N/A   Clear
1:52 PM 55.0 °F - 32.0 °F 42% 30.09 in 10.0 mi West 10.4 mph - N/A   Clear
2:52 PM 54.0 °F - 28.0 °F 37% 30.08 in 10.0 mi NW 5.8 mph - N/A   Clear
3:52 PM 55.0 °F - 28.0 °F 35% 30.09 in 10.0 mi West 8.1 mph - N/A   Clear
4:52 PM 53.1 °F - 30.0 °F 41% 30.09 in 10.0 mi North 3.5 mph - N/A   Clear
5:52 PM 45.0 °F - 35.1 °F 68% 30.12 in 10.0 mi Calm Calm - N/A   Clear
6:52 PM 37.9 °F - 33.1 °F 83% 30.14 in 10.0 mi Calm Calm - N/A   Clear
7:52 PM 34.0 °F - 30.0 °F 85% 30.15 in 10.0 mi Calm Calm - N/A   Clear
8:52 PM 32.0 °F - 28.9 °F 88% 30.18 in 10.0 mi Calm Calm - N/A   Clear
9:52 PM 30.0 °F - 27.0 °F 88% 30.19 in 10.0 mi Calm Calm - N/A   Clear
10:52 PM 30.0 °F - 26.1 °F 85% 30.18 in 10.0 mi Calm Calm - N/A   Clear
11:52 PM 30.0 °F - 26.1 °F 85% 30.19 in 10.0 mi Calm Calm - N/A   Clear